This is the latest recevied weather packets stored in our database for station/object DK9XR-14. If no packets are shown the sender has not sent any weather packets the latest 1 day(s).
| Time | Temp. | Humidity | Pressure | Rain* | Wind** | Luminosity | Snow |
|---|---|---|---|---|---|---|---|
| 1778001720 | 16.67° C | 64% | 1008.5 hPa | 0 mm | 0.45 m/s, 323° | - | - |
| 1778001421 | 16.67° C | 64% | 1008.3 hPa | 0 mm | 0.45 m/s, 299° | - | - |
| 1778001120 | 16.67° C | 64% | 1008.3 hPa | 0 mm | 0.45 m/s, 290° | - | - |
| 1778000822 | 16.67° C | 62% | 1008.3 hPa | 0 mm | 0.45 m/s, 276° | - | - |
| 1778000519 | 17.22° C | 60% | 1008.2 hPa | 0 mm | 0.89 m/s, 310° | - | - |
| 1778000228 | 17.22° C | 61% | 1008.1 hPa | 0 mm | 0.89 m/s, 305° | - | - |
| 1777999920 | 17.78° C | 60% | 1008.1 hPa | 0 mm | 1.34 m/s, 25° | - | - |
| 1777999620 | 17.78° C | 61% | 1008.2 hPa | 0 mm | 0 m/s | - | - |
| 1777999316 | 17.78° C | 60% | 1008.3 hPa | 0 mm | 0 m/s | - | - |
| 1777999017 | 17.78° C | 61% | 1008.7 hPa | 0 mm | 0.45 m/s, 343° | - | - |
| 1777998714 | 17.22° C | 62% | 1008.7 hPa | 0 mm | 0.45 m/s, 285° | - | - |
| 1777998413 | 17.22° C | 60% | 1008.7 hPa | 0 mm | 0.45 m/s, 292° | - | - |
| 1777998111 | 16.67° C | 61% | 1008.6 hPa | 0 mm | 0.45 m/s, 330° | - | - |
| 1777997811 | 16.67° C | 62% | 1008.7 hPa | 0 mm | 1.34 m/s, 255° | - | - |
| 1777997511 | 17.22° C | 62% | 1008.7 hPa | 0 mm | 0.89 m/s, 310° | - | - |
| 1777997210 | 17.22° C | 62% | 1008.7 hPa | 0 mm | 0.89 m/s, 307° | - | - |
| 1777996912 | 17.22° C | 62% | 1008.7 hPa | 0 mm | 0.45 m/s, 288° | - | - |
| 1777996611 | 16.67° C | 62% | 1008.7 hPa | 0 mm | 0.45 m/s, 329° | - | - |
| 1777996312 | 17.22° C | 61% | 1008.8 hPa | 0 mm | 0.89 m/s, 288° | - | - |
| 1777996007 | 17.22° C | 62% | 1008.7 hPa | 0 mm | 0.89 m/s, 305° | - | - |
| 1777995707 | 16.67° C | 62% | 1008.6 hPa | 0 mm | 0.45 m/s, 35° | - | - |
| 1777995402 | 16.67° C | 63% | 1008.6 hPa | 0 mm | 0.45 m/s, 323° | - | - |
| 1777995102 | 16.67° C | 62% | 1008.6 hPa | 0 mm | 1.79 m/s, 319° | - | - |
| 1777994802 | 16.67° C | 65% | 1008.7 hPa | 0 mm | 0.89 m/s, 296° | - | - |
| 1777994499 | 16.67° C | 66% | 1008.8 hPa | 0 mm | 0.89 m/s, 276° | - | - |
* Rain latest hour (hover to see other rain measurements)
** Current wind speed in m/s (hover to see current wind gust speed)